Location: Unspecified
(58.9933°N, 5.6375°E)
Time: 13:12:39
(UTC+01:00)

CZ-3 Stage 3 - Visible Passes

Search period start: 30 October 2014 00:00
Search period end: 09 November 2014 00:00
Orbit: 417 x 34819 km, 30.9° (Epoch: 29 October)

Date Brightness Start Highest point End Pass type
(mag) Time Alt. Az. Time Alt. Az. Time Alt. Az.
30 Oct 7.7 00:00:00 20° S 02:47:52 35° SSE 03:19:54 10° ESE visible
30 Oct 8.4 21:24:17 10° ESE 22:49:34 16° ESE 23:28:32 10° E visible
01 Nov 7.1 01:56:53 10° SW 06:37:19 31° SSW 06:50:24 10° SSE visible
01 Nov 7.7 21:51:06 10° SSE 02:44:16 36° SSE 03:16:11 10° ESE visible
02 Nov 8.3 21:05:48 10° ESE 22:45:06 18° ESE 23:26:55 10° E visible
04 Nov 7.0 01:41:20 10° SW 06:33:14 30° SSW 06:46:20 10° SSE visible
04 Nov 7.6 21:35:57 10° SSE 02:40:32 37° SSE 03:12:19 10° ESE visible
05 Nov 8.3 20:47:49 10° ESE 22:40:30 19° ESE 23:24:42 10° E visible
07 Nov 7.0 01:26:06 10° SW 06:29:01 30° SSW 06:42:08 10° SSE visible
07 Nov 7.6 21:20:59 10° SSE 02:36:38 38° S 03:08:19 10° ESE visible
08 Nov 8.2 20:30:13 10° ESE 22:35:46 21° ESE 23:22:02 10° E visible
